Time,TemperatureF,DewpointF,PressureIn,WindDirection,WindDirectionDegrees,WindSpeedMPH,WindSpeedGustMPH,Humidity,HourlyPrecipIn,Conditions,Clouds,dailyrainin,SoftwareType,DateUTC
2013-12-09 00:04:00,31.8,31.0,30.09,West,281,2.0,10.0,98,0.00,,,0.08,weatherlink.com 1.10,2013-12-09 06:04:00,
2013-12-09 00:19:00,31.7,31.0,30.09,West,269,5.0,8.0,98,0.00,,,0.08,weatherlink.com 1.10,2013-12-09 06:19:00,
2013-12-09 00:34:00,31.6,31.0,30.09,West,280,1.0,6.0,98,0.00,,,0.08,weatherlink.com 1.10,2013-12-09 06:34:00,
2013-12-09 00:49:00,31.5,31.0,30.09,WNW,284,1.0,7.0,98,0.00,,,0.08,weatherlink.com 1.10,2013-12-09 06:49:00,
2013-12-09 01:04:00,31.4,31.0,30.09,WSW,246,2.0,7.0,98,0.00,,,0.08,weatherlink.com 1.10,2013-12-09 07:04:00,
2013-12-09 01:19:00,31.2,31.0,30.10,NW,304,4.0,11.0,98,0.00,,,0.08,weatherlink.com 1.10,2013-12-09 07:19:00,
2013-12-09 01:34:00,30.9,30.0,30.10,SW,229,4.0,11.0,98,0.00,,,0.08,weatherlink.com 1.10,2013-12-09 07:34:00,
2013-12-09 01:49:00,30.8,30.0,30.10,WNW,296,0.0,11.0,98,0.01,,,0.09,weatherlink.com 1.10,2013-12-09 07:49:00,
2013-12-09 02:04:00,30.5,30.0,30.11,WSW,241,0.0,11.0,98,0.01,,,0.09,weatherlink.com 1.10,2013-12-09 08:04:00,
2013-12-09 02:19:00,30.3,30.0,30.12,WNW,299,4.0,5.0,98,0.01,,,0.09,weatherlink.com 1.10,2013-12-09 08:19:00,
2013-12-09 02:34:00,29.8,29.0,30.13,WNW,295,2.0,8.0,98,0.01,,,0.00,weatherlink.com 1.10,2013-12-09 08:34:00,
2013-12-09 02:50:00,29.2,29.0,30.14,West,280,5.0,9.0,97,0.00,,,0.00,weatherlink.com 1.10,2013-12-09 08:50:00,
2013-12-09 03:05:00,29.0,28.0,30.14,West,280,0.0,6.0,97,0.00,,,0.00,weatherlink.com 1.10,2013-12-09 09:05:00,
2013-12-09 03:20:00,28.9,28.0,30.14,West,277,1.0,4.0,97,0.00,,,0.00,weatherlink.com 1.10,2013-12-09 09:20:00,
2013-12-09 03:35:00,29.0,28.0,30.14,West,277,0.0,4.0,97,0.00,,,0.00,weatherlink.com 1.10,2013-12-09 09:35:00,
2013-12-09 03:50:00,29.0,28.0,30.14,NW,315,0.0,4.0,97,0.00,,,0.00,weatherlink.com 1.10,2013-12-09 09:50:00,
2013-12-09 04:05:00,29.0,28.0,30.14,NW,315,0.0,5.0,97,0.00,,,0.00,weatherlink.com 1.10,2013-12-09 10:05:00,
2013-12-09 04:20:00,29.0,28.0,30.14,NW,315,0.0,4.0,97,0.00,,,0.00,weatherlink.com 1.10,2013-12-09 10:20:00,
2013-12-09 04:35:00,29.0,28.0,30.14,NW,315,0.0,5.0,97,0.00,,,0.00,weatherlink.com 1.10,2013-12-09 10:35:00,
2013-12-09 04:50:00,28.8,28.0,30.15,West,275,0.0,6.0,97,0.00,,,0.00,weatherlink.com 1.10,2013-12-09 10:50:00,
2013-12-09 05:05:00,28.7,28.0,30.15,WNW,294,1.0,5.0,97,0.00,,,0.00,weatherlink.com 1.10,2013-12-09 11:05:00,
2013-12-09 05:20:00,28.6,28.0,30.16,WNW,294,0.0,0.0,97,0.00,,,0.00,weatherlink.com 1.10,2013-12-09 11:20:00,
2013-12-09 05:35:00,28.5,28.0,30.16,WNW,294,0.0,0.0,97,0.00,,,0.00,weatherlink.com 1.10,2013-12-09 11:35:00,
2013-12-09 05:50:00,28.5,28.0,30.17,WNW,294,0.0,0.0,97,0.00,,,0.00,weatherlink.com 1.10,2013-12-09 11:50:00,
2013-12-09 06:05:00,28.5,28.0,30.18,WNW,294,0.0,0.0,97,0.00,,,0.00,weatherlink.com 1.10,2013-12-09 12:05:00,
2013-12-09 06:20:00,28.1,27.0,30.18,WNW,294,0.0,0.0,97,0.00,,,0.00,weatherlink.com 1.10,2013-12-09 12:20:00,
2013-12-09 06:35:00,27.9,27.0,30.19,WNW,294,0.0,0.0,97,0.00,,,0.00,weatherlink.com 1.10,2013-12-09 12:35:00,
2013-12-09 06:50:00,27.6,27.0,30.19,WNW,294,0.0,0.0,97,0.00,,,0.00,weatherlink.com 1.10,2013-12-09 12:50:00,
2013-12-09 07:05:00,27.3,27.0,30.19,WNW,294,0.0,0.0,97,0.00,,,0.00,weatherlink.com 1.10,2013-12-09 13:05:00,
2013-12-09 07:20:00,27.1,26.0,30.19,WNW,294,0.0,0.0,97,0.00,,,0.00,weatherlink.com 1.10,2013-12-09 13:20:00,
2013-12-09 07:35:00,26.7,26.0,30.20,WNW,294,0.0,0.0,96,0.00,,,0.00,weatherlink.com 1.10,2013-12-09 13:35:00,
2013-12-09 07:50:00,27.0,26.0,30.21,WNW,294,0.0,0.0,97,0.00,,,0.00,weatherlink.com 1.10,2013-12-09 13:50:00,
2013-12-09 08:05:00,28.1,27.0,30.21,WNW,294,0.0,1.0,97,0.00,,,0.00,weatherlink.com 1.10,2013-12-09 14:05:00,
2013-12-09 08:20:00,28.8,28.0,30.21,WNW,294,2.0,4.0,97,0.00,,,0.00,weatherlink.com 1.10,2013-12-09 14:20:00,
2013-12-09 08:35:00,29.1,28.0,30.22,WNW,295,2.0,5.0,96,0.00,,,0.00,weatherlink.com 1.10,2013-12-09 14:35:00,
2013-12-09 08:50:00,29.2,28.0,30.23,North,355,2.0,5.0,95,0.00,,,0.00,weatherlink.com 1.10,2013-12-09 14:50:00,
2013-12-09 09:05:00,29.6,28.0,30.23,North,355,1.0,3.0,95,0.00,,,0.00,weatherlink.com 1.10,2013-12-09 15:05:00,
2013-12-09 09:20:00,29.7,28.0,30.23,North,355,1.0,5.0,94,0.00,,,0.00,weatherlink.com 1.10,2013-12-09 15:20:00,
2013-12-09 09:35:00,30.2,29.0,30.23,North,355,0.0,2.0,94,0.00,,,0.00,weatherlink.com 1.10,2013-12-09 15:35:00,
2013-12-09 09:50:00,30.4,29.0,30.23,North,355,2.0,4.0,93,0.00,,,0.00,weatherlink.com 1.10,2013-12-09 15:50:00,
2013-12-09 10:05:00,30.4,28.0,30.24,North,355,0.0,5.0,92,0.01,,,0.01,weatherlink.com 1.10,2013-12-09 16:05:00,
2013-12-09 10:21:00,30.8,29.0,30.25,NW,304,1.0,6.0,93,0.01,,,0.01,weatherlink.com 1.10,2013-12-09 16:21:00,
2013-12-09 10:36:00,30.7,28.0,30.26,WNW,295,0.0,6.0,91,0.01,,,0.01,weatherlink.com 1.10,2013-12-09 16:36:00,
2013-12-09 10:51:00,30.8,28.0,30.26,North,355,4.0,6.0,90,0.01,,,0.01,weatherlink.com 1.10,2013-12-09 16:51:00,
2013-12-09 11:06:00,31.0,28.0,30.25,North,5,0.0,6.0,89,0.00,,,0.01,weatherlink.com 1.10,2013-12-09 17:06:00,
2013-12-09 11:21:00,31.1,28.0,30.26,North,5,4.0,6.0,89,0.00,,,0.01,weatherlink.com 1.10,2013-12-09 17:21:00,
2013-12-09 11:36:00,31.2,29.0,30.25,North,5,4.0,5.0,90,0.00,,,0.01,weatherlink.com 1.10,2013-12-09 17:36:00,
2013-12-09 11:51:00,31.0,28.0,30.24,North,5,2.0,8.0,88,0.00,,,0.01,weatherlink.com 1.10,2013-12-09 17:51:00,
2013-12-09 12:06:00,31.2,28.0,30.24,North,360,1.0,6.0,89,0.00,,,0.01,weatherlink.com 1.10,2013-12-09 18:06:00,
2013-12-09 12:21:00,31.1,28.0,30.23,NW,325,3.0,7.0,88,0.00,,,0.01,weatherlink.com 1.10,2013-12-09 18:21:00,
2013-12-09 12:36:00,31.4,29.0,30.23,North,351,1.0,5.0,89,0.00,,,0.01,weatherlink.com 1.10,2013-12-09 18:36:00,
2013-12-09 12:51:00,31.5,28.0,30.23,NNW,344,2.0,6.0,88,0.00,,,0.01,weatherlink.com 1.10,2013-12-09 18:51:00,
2013-12-09 13:06:00,31.5,28.0,30.23,North,360,4.0,8.0,88,0.00,,,0.01,weatherlink.com 1.10,2013-12-09 19:06:00,
2013-12-09 13:21:00,31.5,28.0,30.22,NNE,13,5.0,7.0,87,0.01,,,0.02,weatherlink.com 1.10,2013-12-09 19:21:00,
2013-12-09 13:36:00,31.3,28.0,30.22,North,360,2.0,7.0,86,0.01,,,0.02,weatherlink.com 1.10,2013-12-09 19:36:00,
2013-12-09 13:51:00,31.4,28.0,30.23,North,355,1.0,6.0,87,0.01,,,0.02,weatherlink.com 1.10,2013-12-09 19:51:00,
2013-12-09 14:06:00,31.5,28.0,30.23,North,355,4.0,7.0,88,0.01,,,0.02,weatherlink.com 1.10,2013-12-09 20:06:00,
2013-12-09 14:21:00,31.3,28.0,30.22,North,355,2.0,7.0,87,0.00,,,0.02,weatherlink.com 1.10,2013-12-09 20:21:00,
2013-12-09 14:36:00,31.3,28.0,30.22,North,355,2.0,5.0,88,0.00,,,0.02,weatherlink.com 1.10,2013-12-09 20:36:00,
2013-12-09 14:51:00,31.1,28.0,30.21,NE,38,4.0,6.0,87,0.00,,,0.02,weatherlink.com 1.10,2013-12-09 20:51:00,
2013-12-09 15:06:00,30.7,27.0,30.21,North,355,5.0,8.0,87,0.00,,,0.02,weatherlink.com 1.10,2013-12-09 21:06:00,
2013-12-09 15:21:00,30.6,28.0,30.21,North,5,7.0,7.0,88,0.00,,,0.02,weatherlink.com 1.10,2013-12-09 21:21:00,
2013-12-09 15:36:00,30.4,27.0,30.21,NNW,336,5.0,7.0,87,0.00,,,0.02,weatherlink.com 1.10,2013-12-09 21:36:00,
2013-12-09 15:51:00,30.3,27.0,30.22,NNE,14,6.0,8.0,87,0.00,,,0.02,weatherlink.com 1.10,2013-12-09 21:51:00,
2013-12-09 16:06:00,30.3,27.0,30.21,NE,43,2.0,7.0,87,0.00,,,0.02,weatherlink.com 1.10,2013-12-09 22:06:00,
2013-12-09 16:21:00,30.1,26.0,30.21,North,5,6.0,7.0,86,0.00,,,0.02,weatherlink.com 1.10,2013-12-09 22:21:00,
2013-12-09 16:36:00,29.9,27.0,30.22,North,355,5.0,9.0,87,0.00,,,0.02,weatherlink.com 1.10,2013-12-09 22:36:00,
2013-12-09 16:51:00,29.8,26.0,30.22,North,360,0.0,6.0,87,0.00,,,0.02,weatherlink.com 1.10,2013-12-09 22:51:00,
2013-12-09 17:06:00,29.8,26.0,30.22,NNE,32,2.0,6.0,87,0.00,,,0.02,weatherlink.com 1.10,2013-12-09 23:06:00,
2013-12-09 17:21:00,29.7,27.0,30.23,NNW,334,1.0,5.0,88,0.00,,,0.02,weatherlink.com 1.10,2013-12-09 23:21:00,
2013-12-09 17:36:00,29.5,26.0,30.23,NNW,334,1.0,5.0,88,0.00,,,0.02,weatherlink.com 1.10,2013-12-09 23:36:00,
2013-12-09 17:51:00,29.5,26.0,30.22,NNW,334,0.0,4.0,88,0.00,,,0.02,weatherlink.com 1.10,2013-12-09 23:51:00,
2013-12-09 18:06:00,29.4,26.0,30.20,NNW,334,2.0,4.0,88,0.00,,,0.02,weatherlink.com 1.10,2013-12-10 00:06:00,
2013-12-09 18:21:00,29.3,27.0,30.21,NNW,334,0.0,3.0,89,0.00,,,0.02,weatherlink.com 1.10,2013-12-10 00:21:00,
2013-12-09 18:36:00,29.0,26.0,30.21,NNW,334,0.0,4.0,89,0.00,,,0.02,weatherlink.com 1.10,2013-12-10 00:36:00,
2013-12-09 18:51:00,28.8,26.0,30.19,NNW,334,3.0,4.0,90,0.00,,,0.02,weatherlink.com 1.10,2013-12-10 00:51:00,
2013-12-09 19:06:00,28.8,26.0,30.20,NNW,334,1.0,3.0,90,0.00,,,0.02,weatherlink.com 1.10,2013-12-10 01:06:00,
2013-12-09 19:21:00,28.8,27.0,30.20,North,351,5.0,7.0,91,0.00,,,0.02,weatherlink.com 1.10,2013-12-10 01:21:00,
2013-12-09 19:36:00,28.8,27.0,30.20,North,355,1.0,5.0,91,0.00,,,0.02,weatherlink.com 1.10,2013-12-10 01:36:00,
2013-12-09 19:51:00,28.8,26.0,30.21,NNE,28,1.0,5.0,90,0.00,,,0.02,weatherlink.com 1.10,2013-12-10 01:51:00,
2013-12-09 20:06:00,28.8,26.0,30.21,NNE,28,4.0,5.0,90,0.00,,,0.02,weatherlink.com 1.10,2013-12-10 02:06:00,
2013-12-09 20:21:00,28.8,26.0,30.23,NNE,28,2.0,5.0,90,0.00,,,0.02,weatherlink.com 1.10,2013-12-10 02:21:00,
2013-12-09 20:36:00,28.7,26.0,30.23,NNE,28,0.0,2.0,89,0.00,,,0.02,weatherlink.com 1.10,2013-12-10 02:36:00,
2013-12-09 20:51:00,28.7,26.0,30.21,NNE,28,0.0,5.0,90,0.00,,,0.02,weatherlink.com 1.10,2013-12-10 02:51:00,
2013-12-09 21:06:00,28.5,26.0,30.20,NNE,28,2.0,5.0,90,0.00,,,0.02,weatherlink.com 1.10,2013-12-10 03:06:00,
2013-12-09 21:21:00,28.5,26.0,30.21,NNE,26,2.0,8.0,90,0.00,,,0.02,weatherlink.com 1.10,2013-12-10 03:21:00,
2013-12-09 21:36:00,28.5,26.0,30.22,NE,42,2.0,10.0,89,0.00,,,0.02,weatherlink.com 1.10,2013-12-10 03:36:00,
2013-12-09 21:51:00,28.4,25.0,30.19,North,9,6.0,9.0,88,0.00,,,0.02,weatherlink.com 1.10,2013-12-10 03:51:00,
2013-12-09 22:06:00,28.1,25.0,30.18,NNE,12,7.0,11.0,86,0.00,,,0.02,weatherlink.com 1.10,2013-12-10 04:06:00,
2013-12-09 22:21:00,27.9,24.0,30.19,North,11,6.0,9.0,85,0.00,,,0.02,weatherlink.com 1.10,2013-12-10 04:21:00,
2013-12-09 22:36:00,27.8,24.0,30.20,North,349,6.0,11.0,84,0.00,,,0.02,weatherlink.com 1.10,2013-12-10 04:36:00,
2013-12-09 22:51:00,27.6,23.0,30.20,North,9,5.0,9.0,83,0.00,,,0.02,weatherlink.com 1.10,2013-12-10 04:51:00,
2013-12-09 23:06:00,27.4,23.0,30.18,NNE,19,5.0,10.0,84,0.00,,,0.02,weatherlink.com 1.10,2013-12-10 05:06:00,
2013-12-09 23:21:00,27.0,22.0,30.18,North,355,7.0,13.0,82,0.00,,,0.02,weatherlink.com 1.10,2013-12-10 05:21:00,
2013-12-09 23:36:00,26.5,22.0,30.19,NNW,333,6.0,12.0,82,0.00,,,0.02,weatherlink.com 1.10,2013-12-10 05:36:00,
2013-12-09 23:51:00,26.3,22.0,30.19,NNW,344,7.0,10.0,82,0.00,,,0.02,weatherlink.com 1.10,2013-12-10 05:51:00,